Regional Weather Roundup
Issued by NWS Charleston, SC

Current Version | Previous Version | Text Only | Print | Product List | Glossary Off
Versions: 1 2 3 4 5 6 7 8 9 10 11 12 13 14 15 16 17 18 19 20 21 22 23 24 25 26 27 28 29 30 31 32 33 34 35 36 37 38 39 40 41 42 43 44 45 46 47 48 49 50
000 ASUS42 KCHS 041227 RWRCHS REGIONAL WEATHER ROUNDUP NATIONAL WEATHER SERVICE CHARLESTON SC 800 AM EDT SAT JUL 04 2015 NOTE: "FAIR" INDICATES FEW OR NO CLOUDS BELOW 12,000 FEET WITH NO SIGNIFICANT WEATHER AND/OR OBSTRUCTIONS TO VISIBILITY. NOT ALL STATIONS ARE QUALITY CONTROLLED BY THE NATIONAL WEATHER SERVICE. USE DATA WITH CAUTION...ESPECIALLY DEWPOINT OBSERVATIONS. SCZ027-030-031-034>040-042>050-041300- ...SOUTHEAST SOUTH CAROLINA... CITY SKY/WX TMP DP RH WIND PRES REMARKS N CHARLESTON MOSUNNY 73 69 87 W3 30.08R 6HR MIN TEMP: 70; 6HR MAX TEMP: 80; 6HR PCP: 0.04; WATERFRONT PAR N/A 78 71 79 N5 30.04R MOUNT PLEASANT FAIR 73 70 88 NW3 30.08R JOHNS ISLAND FAIR 81 75 83 W5 30.08R PINOPOLIS NOT AVBL MONCKS CORNER FAIR 77 70 78 SW5 30.06F SUMMERVILLE FAIR 73 72 94 S3 30.08S BEAUFORT MCAS MOSUNNY 78 71 79 NW8 30.08S 6HR MIN TEMP: 76; 6HR MAX TEMP: 81; BEAUFORT ARPT FAIR 79 72 78 W8 30.08S HILTON HEAD IS MOSUNNY 81 73 78 W9 30.09R WALTERBORO PTSUNNY 73 68 83 CALM 30.08S ALLENDALE FAIR 73 70 88 S3 30.06S ...SOUTHERN MIDLANDS AND PEE DEE... CITY SKY/WX TMP DP RH WIND PRES REMARKS GEORGETOWN NOT AVBL KINGSTREE NOT AVBL ORANGEBURG CLOUDY 72 68 87 S6 30.05F 6HR MIN TEMP: 70; 6HR MAX TEMP: 74; 6HR PCP: 0.10; BARNWELL FAIR 73 70 88 S3 30.06S AIKEN NOT AVBL MANNING RAIN 72 70 94 SW5 30.05F COLUMBIA CLOUDY 72 68 87 S3 30.02F 6HR MIN TEMP: 70; 6HR MAX TEMP: 77; 6HR PCP: 0.07; SUMTER CLOUDY 72 68 88 SW8 30.02F 6HR MIN TEMP: 70; 6HR MAX TEMP: 75; 6HR PCP: 0.36; FLORENCE CLOUDY 73 69 87 SW10 30.03R 6HR MIN TEMP: 71; 6HR MAX TEMP: 78; 6HR PCP: 0.08; MYRTLE BEACH MOSUNNY 75 66 73 W12 30.06S N MYRTLE BEACH PTSUNNY 77 67 71 W9 30.03S 6HR MIN TEMP: 76; 6HR MAX TEMP: 80; $$ GAZ063-065-086>088-099>101-113>116-118-119-134>141-150-041300- ...SOUTHEAST GEORGIA... CITY SKY/WX TMP DP RH WIND PRES REMARKS SAVANNAH ARPT PTSUNNY 77 72 84 W3 30.09R 6HR MIN TEMP: 75; 6HR MAX TEMP: 79; HUNTER AAF MOSUNNY 78 74 88 W6 30.06R 6HR MIN TEMP: 76; 6HR MAX TEMP: 80; FORT STEWART SUNNY 77 73 86 VRB2 30.07R 6HR MIN TEMP: 75; 6HR MAX TEMP: 77; STATESBORO NOT AVBL SYLVANIA MOSUNNY 76 71 84 CALM 30.08S CLAXTON FAIR 77 70 78 CALM 30.08S ...CSRA...CENTRAL AND FAR SOUTHEAST GEORGIA... CITY SKY/WX TMP DP RH WIND PRES REMARKS THOMSON CLOUDY 72 71 97 CALM 30.11R AUGUSTA-BUSH CLOUDY 73 68 84 CALM 30.04S 6HR MIN TEMP: 70; 6HR MAX TEMP: 74; 6HR PCP: 0.01; AUGUSTA-DANIEL CLOUDY 72 67 84 CALM 30.06R SWAINSBORO FAIR N/A N/A N/A CALM 30.08R VIDALIA MOSUNNY 75 68 78 S3 30.08R EASTMAN FAIR 73 73 100 CALM 30.11R HAZLEHURST FAIR 78 76 95 CALM 30.08R ALMA SUNNY 76 74 93 S5 30.09R 6HR MIN TEMP: 74; 6HR MAX TEMP: 78; WAYCROSS PTSUNNY 80 78 96 SW7 30.10S JESUP FAIR 79 77 94 SW5 30.10S BAXLEY FAIR 79 75 89 S6 30.08S BRUNSWICK SUNNY 79 75 89 SW9 30.11S SAINT SIMONS SUNNY 77 74 90 W8 30.11R 6HR MIN TEMP: 76; 6HR MAX TEMP: 80; $$ SCZ027-028-034-036>038-045-046-048>050-GAZ119-141-041300- ...LAKE AND SUPPLEMENTAL COASTAL OBSERVATIONS... STATION/POSITION TIME TEMP WIND PRES WAVE SWELL AIR SEA DIR/SP/G HT/PER HT/PER/DIR (UTC) (F) (DEG/KT/KT) (MB) (FT/S) (FT/S/D) UPR LAKE MARION NOT AVBL WINYAH BAY 1100 71 280/ 7 1016.0 LAKE MURRAY 1200 74 220/ 9/ 11 1015.9F ACE BASIN NERRS NOT AVBL FORT PULASKI 1200 79 84 260/ 7/ 8 1019.2R SAPELO ISLAND 1200 78 240/ 7 1019.0S $$ ANZ835-935-AMZ111-154-330-350-352-354-370-450-454-472-041300- ...C-MAN AND BUOY OBSERVATIONS... STATION/POSITION TIME TEMP WIND PRES WAVE SWELL AIR SEA DIR/SP/G HT/PER HT/PER/DIR (UTC) (F) (DEG/KT/KT) (MB) (FT/S) (FT/S/D) BUOY 41004 1150 81 81 230/ 16/ 19 1017.3R 6/ 6 2/ 9 BUOY 41008 1150 79 78 250/ 12/ 14 1019.1R 3/ 8 2/120/ 8 FOLLY BEACH CMAN 1200 80 250/ 7/ 9 1018.4R CAPERS NEARSHORE 1108 82 250/ 12/ 16 1017.7R FRIPP NEARSHORE 1100 82 240/ 10/ 14 1017.6R STATION/POSITION TIME TEMP WIND PRES WAVE SWELL AIR SEA DIR/SP/G HT/PER HT/PER/DIR (UTC) (F) (DEG/KT/KT) (MB) (FT/S) (FT/S/D) 5E ST. MARYS GA 1121 76 N/A 2/ 8 FRYING PAN BUOY 1150 81 78 250/ 17/ 19 1017.6R 6/ 6 2/200/14 BUOY 41025 1150 80 81 250/ 25/ 29 1014.3R 7/ 7 2/140/15 CAPE LOOKOUT NC 1200 80 240/ 19/ 23 1015.4R BUOY 41002 1150 81 80 240/ 14/ 16 1020.6R 6/ 6 3/150/ 9 BUOY 41010 1120 83 84 190/ 8/ 8 1020.3R ST AUGUSTINE FL 1200 77 72 240/ 7/ 8 1020.8R $$

USA.gov is the U.S. government's official web portal to all federal, state and local government web resources and services.